Location: Munkebjergskolens Observatorium
(55.3864°N, 10.3987°E)
Time: 05:19:16
(UTC+01:00)

AO-7 - Visible Passes

Search period start: 21 March 2023 00:00
Search period end: 31 March 2023 01:00
Orbit: 1440 x 1458 km, 101.9° (Epoch: 20 March)

Date Brightness Start Highest point End Pass type
(mag) Time Alt. Az. Time Alt. Az. Time Alt. Az.
21 Mar ? 03:21:27 10° NE 03:26:41 18° E 03:31:54 10° ESE visible
21 Mar ? 05:12:55 10° NNE 05:21:15 63° ESE 05:29:29 10° S visible
22 Mar ? 04:13:15 10° NNE 04:20:39 33° E 04:27:58 10° SSE visible
23 Mar ? 03:14:41 10° NE 03:19:26 16° E 03:24:09 10° ESE visible
23 Mar ? 05:05:52 10° NNE 05:14:08 58° ESE 05:22:19 10° S visible
24 Mar ? 04:06:17 10° NNE 04:13:28 31° E 04:20:35 10° SSE visible
25 Mar ? 03:08:00 10° NE 03:12:10 14° E 03:16:19 10° ESE visible
25 Mar ? 04:58:50 10° NNE 05:07:01 54° ESE 05:15:07 10° S visible
26 Mar ? 04:59:19 10° NNE 05:06:17 28° E 05:13:10 10° SSE visible
27 Mar ? 04:01:26 10° NE 04:04:54 13° ENE 04:08:21 10° ESE visible
27 Mar ? 05:51:47 10° NNE 05:59:53 50° E 06:07:54 10° S visible
28 Mar ? 04:52:22 10° NE 04:59:05 26° E 05:05:43 10° SE visible
29 Mar ? 03:55:07 10° ENE 03:57:37 11° ENE 04:00:06 10° E visible
29 Mar ? 05:44:45 10° NNE 05:52:45 46° E 06:00:40 10° S visible
30 Mar ? 04:45:27 10° NE 04:51:53 24° E 04:58:14 10° SE visible
